User: anonymous   Login
Location: Newark
(10.3333°N, 37.7167°E)
Time: 22:13:31
(UTC+00:00)
Language:

STARLINK-1095 - Orbit

View from above orbital plane
View from above orbital plane
View from above satellite
View from above satellite

Ground track
Ground track

The orbit data is extracted from the following two-line orbital elements,

1 44971C 20001BK  20093.53629787  .00007619  00000-0  83042-4 0   938
2 44971  53.0006 328.2829 0001343  57.1424 132.6292 15.62742705    14
Epoch (UTC): 02 April 2020 12:52:16
Eccentricity: 0.0001343
inclination: 53.0006°
perigee height: 379 km
apogee height: 380 km
right ascension of ascending node: 328.2829°
argument of perigee: 57.1424°
revolutions per day: 15.62742705
mean anomaly at epoch: 132.6292°
orbit number at epoch: 1

The dashed part of the orbit path shows where the satellite is in the earth's shadow,  

DLR